Location: Unspecified
(0.0000°N, 0.0000°E)
Time: 01:46:35
(UTC+00:00)

Vanguard 1 Rocket - Visible Passes

Search period start: 27 November 2022 00:00
Search period end: 07 December 2022 00:00
Orbit: 650 x 4225 km, 34.3° (Epoch: 26 November)

Date Brightness Start Highest point End Pass type
(mag) Time Alt. Az. Time Alt. Az. Time Alt. Az.
27 Nov 11.5 18:42:57 10° WSW 19:00:41 22° SSW 19:15:28 10° SSE visible
27 Nov 10.9 21:28:39 10° SSW 21:39:38 17° S 21:45:34 13° SSE visible
28 Nov 10.9 00:00:47 10° SW 00:02:48 14° SSW 00:02:48 14° SSW visible
28 Nov 11.2 20:09:33 10° SW 20:23:07 18° S 20:33:21 10° SE visible
28 Nov 10.6 22:46:23 10° SSW 22:55:10 23° S 22:55:10 23° S visible
29 Nov 11.5 18:48:19 10° SW 19:05:11 20° S 19:19:06 10° SSE visible
29 Nov 10.7 21:30:41 10° SSW 21:43:46 21° S 21:47:31 19° SSE visible
30 Nov 11.0 00:02:36 10° SW 00:04:45 15° SW 00:04:45 15° SW visible
30 Nov 11.1 20:12:58 10° SW 20:27:37 19° S 20:38:15 10° SE visible
30 Nov 10.5 22:47:58 10° SW 22:57:07 27° S 22:57:07 27° S visible
01 Dec 11.4 18:53:12 10° SW 19:09:51 20° S 19:23:19 10° SE visible
01 Dec 10.5 21:32:29 10° SSW 21:47:41 26° SSE 21:49:29 26° SSE visible
02 Dec 11.0 00:04:38 10° SW 00:06:43 15° SW 00:06:43 15° SW visible
02 Dec 10.9 20:15:42 10° SW 20:31:56 22° S 20:41:52 13° SE visible
02 Dec 10.5 22:49:40 10° SW 22:59:06 31° SSW 22:59:06 31° SSW visible
03 Dec 11.3 18:57:20 10° SW 19:14:31 21° S 19:28:01 10° SE visible
03 Dec 10.3 21:34:12 10° SW 21:51:22 34° SSE 21:51:29 34° SSE visible
04 Dec 11.1 00:06:54 10° SW 00:08:43 14° SW 00:08:43 14° SW visible
04 Dec 10.7 20:17:57 10° SW 20:36:01 27° SSE 20:43:53 19° SE visible
04 Dec 10.4 22:51:30 10° SW 23:01:07 33° SSW 23:01:07 33° SSW visible
05 Dec 11.1 19:00:42 10° SW 19:19:03 23° S 19:32:56 10° SE visible
05 Dec 10.1 21:35:54 10° SW 21:53:33 42° SSE 21:53:33 42° SSE visible
06 Dec 11.2 00:09:27 10° WSW 00:10:47 13° WSW 00:10:47 13° WSW visible
06 Dec 11.5 17:42:34 10° SW 18:00:32 22° S 18:16:36 10° SE visible
06 Dec 10.4 20:19:56 10° SW 20:39:51 33° SSE 20:45:59 27° SE visible
06 Dec 10.5 22:53:32 10° SW 23:03:13 34° SW 23:03:13 34° SW visible
